Hourly Weather Bolshie Steblevichi

Today, 17 June, Thursday

Time Temperature Precipitation Wind Pressure Humidity
00:00 +14°C° 0 mm 2 mps 753 mmHg 89%
01:00 +14°C° 0 mm 2 mps 753 mmHg 90%
02:00 +14°C° 0 mm 2 mps 753 mmHg 91%
03:00 +14°C° 0 mm 2 mps 753 mmHg 90%
04:00 +14°C° 0 mm 2 mps 753 mmHg 89%
05:00 +14°C° 0 mm 2 mps 753 mmHg 88%
06:00 +16°C° 0 mm 3 mps 753 mmHg 80%
07:00 +18°C° 0 mm 3 mps 754 mmHg 73%
08:00 +20°C° 0 mm 3 mps 754 mmHg 66%
09:00 +22°C° 0 mm 3 mps 754 mmHg 62%
10:00 +24°C° 0 mm 3 mps 754 mmHg 57%
11:00 +26°C° 0 mm 3 mps 755 mmHg 53%
12:00 +26°C° 0 mm 3 mps 754 mmHg 52%
13:00 +27°C° 0 mm 3 mps 754 mmHg 51%
14:00 +27°C° 0 mm 3 mps 754 mmHg 50%
15:00 +27°C° 0 mm 3 mps 754 mmHg 51%
16:00 +27°C° 0 mm 3 mps 754 mmHg 53%
17:00 +27°C° 0 mm 3 mps 754 mmHg 54%
18:00 +25°C° 0 mm 3 mps 754 mmHg 61%
19:00 +22°C° 0 mm 3 mps 755 mmHg 68%
20:00 +20°C° 0 mm 2 mps 755 mmHg 75%
21:00 +19°C° 0 mm 2 mps 755 mmHg 77%
22:00 +18°C° 0 mm 2 mps 755 mmHg 80%
23:00 +17°C° 0 mm 2 mps 755 mmHg 82%

Tomorrow, 18 June, Friday

Time Temperature Precipitation Wind Pressure Humidity
00:00 +16°C° 0 mm 2 mps 755 mmHg 85%
01:00 +16°C° 0 mm 2 mps 755 mmHg 88%
02:00 +15°C° 0 mm 2 mps 755 mmHg 91%
03:00 +15°C° 0 mm 2 mps 756 mmHg 91%
04:00 +15°C° 0 mm 2 mps 756 mmHg 90%
05:00 +15°C° 0 mm 2 mps 756 mmHg 90%
06:00 +17°C° 0 mm 2 mps 756 mmHg 82%
07:00 +19°C° 0 mm 3 mps 756 mmHg 74%
08:00 +21°C° 0 mm 3 mps 756 mmHg 66%
09:00 +22°C° 0 mm 3 mps 756 mmHg 62%
10:00 +25°C° 0 mm 3 mps 756 mmHg 58%
11:00 +26°C° 0 mm 4 mps 755 mmHg 53%
12:00 +27°C° 0 mm 4 mps 755 mmHg 53%
13:00 +27°C° 0 mm 4 mps 755 mmHg 52%
14:00 +28°C° 0 mm 4 mps 755 mmHg 52%
15:00 +28°C° 0 mm 4 mps 754 mmHg 54%
16:00 +28°C° 0 mm 4 mps 754 mmHg 56%
17:00 +28°C° 0 mm 4 mps 754 mmHg 58%
18:00 +26°C° 0 mm 4 mps 754 mmHg 65%
19:00 +24°C° 0 mm 3 mps 754 mmHg 72%
20:00 +21°C° 0 mm 3 mps 754 mmHg 78%
21:00 +20°C° 0 mm 3 mps 755 mmHg 83%
22:00 +19°C° 0 mm 3 mps 755 mmHg 88%
23:00 +18°C° 0 mm 2 mps 755 mmHg 92%

Day after tomorrow, 19 June, Saturday

Time Temperature Precipitation Wind Pressure Humidity
00:00 +18°C° 0 mm 2 mps 755 mmHg 93%
01:00 +18°C° 0 mm 2 mps 755 mmHg 95%
02:00 +17°C° 0 mm 2 mps 755 mmHg 96%
03:00 +17°C° 0 mm 2 mps 755 mmHg 96%
04:00 +17°C° 0 mm 2 mps 755 mmHg 96%
05:00 +17°C° 0 mm 2 mps 755 mmHg 96%
06:00 +19°C° 0 mm 2 mps 755 mmHg 89%
07:00 +21°C° 0 mm 3 mps 755 mmHg 82%
08:00 +22°C° 0 mm 3 mps 755 mmHg 75%
09:00 +25°C° 0 mm 3 mps 755 mmHg 69%
10:00 +26°C° 0 mm 4 mps 755 mmHg 64%
11:00 +27°C° 0 mm 4 mps 754 mmHg 58%
12:00 +28°C° 0 mm 4 mps 754 mmHg 55%
13:00 +28°C° 0 mm 4 mps 754 mmHg 52%
14:00 +29°C° 0 mm 4 mps 754 mmHg 49%
15:00 +29°C° 0 mm 4 mps 753 mmHg 51%
16:00 +29°C° 0 mm 4 mps 753 mmHg 53%
17:00 +28°C° 0 mm 3 mps 753 mmHg 55%
18:00 +27°C° 0 mm 3 mps 753 mmHg 62%
19:00 +25°C° 0 mm 3 mps 753 mmHg 70%
20:00 +22°C° 0 mm 3 mps 753 mmHg 78%
21:00 +21°C° 0 mm 2 mps 753 mmHg 82%
22:00 +20°C° 0 mm 2 mps 753 mmHg 86%
23:00 +19°C° 0 mm 2 mps 753 mmHg 91%

20 June, Sunday

Time Temperature Precipitation Wind Pressure Humidity
00:00 +19°C° 0 mm 2 mps 753 mmHg 91%
01:00 +19°C° 0 mm 2 mps 753 mmHg 91%
02:00 +19°C° 0 mm 2 mps 753 mmHg 91%
03:00 +19°C° 0 mm 2 mps 753 mmHg 91%
04:00 +20°C° 0 mm 2 mps 753 mmHg 91%
05:00 +20°C° 0 mm 2 mps 753 mmHg 91%
06:00 +20°C° 0 mm 2 mps 753 mmHg 90%
07:00 +21°C° 0 mm 3 mps 753 mmHg 89%
08:00 +21°C° 0 mm 3 mps 753 mmHg 88%
09:00 +24°C° 0.1 mm 3 mps 753 mmHg 80%
10:00 +26°C° 0.1 mm 3 mps 752 mmHg 72%
11:00 +27°C° 0.1 mm 4 mps 752 mmHg 64%
12:00 +28°C° 0.2 mm 4 mps 752 mmHg 60%
13:00 +29°C° 0.2 mm 4 mps 752 mmHg 55%
14:00 +30°C° 0.2 mm 4 mps 751 mmHg 51%
15:00 +29°C° 0 mm 4 mps 751 mmHg 53%
16:00 +29°C° 0 mm 4 mps 751 mmHg 55%
17:00 +29°C° 0 mm 4 mps 750 mmHg 57%
18:00 +27°C° 0 mm 4 mps 750 mmHg 63%
19:00 +25°C° 0 mm 4 mps 750 mmHg 68%
20:00 +24°C° 0 mm 3 mps 751 mmHg 74%
21:00 +21°C° 0 mm 3 mps 751 mmHg 78%
22:00 +20°C° 0 mm 3 mps 751 mmHg 83%
23:00 +19°C° 0 mm 3 mps 751 mmHg 88%

21 June, Monday

Time Temperature Precipitation Wind Pressure Humidity
00:00 +18°C° 0 mm 2 mps 751 mmHg 90%
01:00 +18°C° 0 mm 2 mps 750 mmHg 93%
02:00 +17°C° 0 mm 2 mps 750 mmHg 96%
03:00 +18°C° 0 mm 2 mps 750 mmHg 95%
04:00 +18°C° 0 mm 2 mps 750 mmHg 95%
05:00 +18°C° 0 mm 2 mps 750 mmHg 95%
06:00 +19°C° 0 mm 3 mps 750 mmHg 87%
07:00 +21°C° 0 mm 3 mps 750 mmHg 79%
08:00 +23°C° 0 mm 4 mps 750 mmHg 71%
09:00 +25°C° 0 mm 4 mps 750 mmHg 64%
10:00 +27°C° 0 mm 4 mps 749 mmHg 58%
11:00 +28°C° 0 mm 5 mps 749 mmHg 51%
12:00 +29°C° 0 mm 5 mps 749 mmHg 50%
13:00 +30°C° 0 mm 5 mps 748 mmHg 48%
14:00 +30°C° 0 mm 5 mps 748 mmHg 47%
15:00 +30°C° 0 mm 5 mps 748 mmHg 51%
16:00 +30°C° 0 mm 5 mps 748 mmHg 54%
17:00 +29°C° 0 mm 5 mps 748 mmHg 58%
18:00 +28°C° 0 mm 4 mps 747 mmHg 63%
19:00 +26°C° 0 mm 4 mps 747 mmHg 69%
20:00 +25°C° 0 mm 3 mps 747 mmHg 74%
21:00 +24°C° 0 mm 3 mps 747 mmHg 77%
22:00 +22°C° 0 mm 3 mps 747 mmHg 79%
23:00 +22°C° 0 mm 3 mps 747 mmHg 81%

22 June, Tuesday

Time Temperature Precipitation Wind Pressure Humidity
00:00 +21°C° 0 mm 3 mps 747 mmHg 85%
01:00 +20°C° 0 mm 3 mps 747 mmHg 89%
02:00 +20°C° 0 mm 2 mps 747 mmHg 93%
03:00 +20°C° 0 mm 2 mps 747 mmHg 93%
04:00 +20°C° 0 mm 2 mps 747 mmHg 92%
05:00 +21°C° 0 mm 2 mps 747 mmHg 92%
06:00 +22°C° 0 mm 3 mps 747 mmHg 86%
07:00 +24°C° 0 mm 3 mps 748 mmHg 81%
08:00 +26°C° 0 mm 3 mps 748 mmHg 75%
09:00 +27°C° 0 mm 4 mps 748 mmHg 69%
10:00 +29°C° 0 mm 4 mps 748 mmHg 62%
11:00 +30°C° 0 mm 5 mps 748 mmHg 55%
12:00 +32°C° 0 mm 5 mps 748 mmHg 52%
13:00 +33°C° 0 mm 4 mps 747 mmHg 49%
14:00 +34°C° 0 mm 4 mps 747 mmHg 46%
15:00 +33°C° 0 mm 4 mps 747 mmHg 48%
16:00 +33°C° 0 mm 4 mps 747 mmHg 51%
17:00 +33°C° 0 mm 3 mps 747 mmHg 54%
18:00 +30°C° 0.2 mm 3 mps 747 mmHg 61%
19:00 +28°C° 0.2 mm 4 mps 747 mmHg 69%
20:00 +26°C° 0.2 mm 4 mps 747 mmHg 76%
21:00 +24°C° 0.8 mm 3 mps 748 mmHg 81%
22:00 +22°C° 0.8 mm 3 mps 748 mmHg 86%
23:00 +21°C° 0.8 mm 3 mps 748 mmHg 91%
Show more